Regional Weather Roundup
Issued by NWS Newport/Morehead, NC

Current Version | Previous Version | Graphics & Text | Print | Product List | Glossary Off
Versions: 1 2 3 4 5 6 7 8 9 10 11 12 13 14 15 16 17 18 19 20 21 22 23 24 25 26 27 28 29 30 31 32 33 34 35 36 37 38 39 40 41 42 43 44 45 46 47 48 49 50
000 ASUS42 KMHX 061713 RWRMHX WEATHER ROUNDUP FOR EASTERN NORTH CAROLINA NATIONAL WEATHER SERVICE NEWPORT/MOREHEAD CITY NC 100 PM EDT MON JUL 06 2015 NOTE: "FAIR" INDICATES FEW OR NO CLOUDS BELOW 12,000 FEET WITH NO SIGNIFICANT WEATHER AND/OR OBSTRUCTIONS TO VISIBILITY NCZ015>017-031-032-045>047-102-103-061800- NORTH COAST CITY SKY/WX TMP DP RH WIND PRES REMARKS EDENTON N/A 87 74 65 S9 30.13F ELIZABETH CITY MOSUNNY 86 74 67 S12 30.13F KITTY HAWK PTSUNNY 82 76 82 CALM 30.14F MANTEO PTSUNNY 81 74 81 S9 30.16F $$ NCZ045>047-081-094-103-104-061800- CENTRAL COAST CITY SKY/WX TMP DP RH WIND PRES REMARKS FRISCO MOSUNNY 83 74 74 SW9 30.17F SWANQUARTER N/A 82 N/A N/A S13G21 30.12S $$ NCZ095-097-098-100-101-061800- SOUTHERN COAST CITY SKY/WX TMP DP RH WIND PRES REMARKS BEAUFORT PTSUNNY 84 75 74 S14 30.16S CEDAR ISLAND N/A 79 N/A N/A NE7 30.21S JACKSONVILLE PTSUNNY 86 72 62 SE7 30.12F PINEY ISLAND PTSUNNY N/A N/A N/A S9 30.15F WILMINGTON MOSUNNY 89 68 49 S10G18 30.13F $$ NCZ011>013-027>030-043-044-078>080-089-090>093-098-061800- COASTAL PLAIN CITY SKY/WX TMP DP RH WIND PRES REMARKS AHOSKIE MOSUNNY N/A N/A N/A S3 30.11F CLINTON MOSUNNY 87 72 60 SW5 30.13S ELIZABETHTOWN MOSUNNY 86 68 55 SW3 30.13F GOLDSBORO MOSUNNY 88 70 55 SW6 30.10F GREENVILLE SUNNY 88 70 55 SW14 30.13F HAVELOCK MOSUNNY 88 71 57 SW15 30.15F KENANSVILLE MOSUNNY 87 67 50 SW9 30.13F KINSTON MOSUNNY 90 68 48 SW8 30.13F NEW BERN MOSUNNY 82 75 79 SW6 30.15F RICHLANDS PTSUNNY 90 70 51 S8 30.12F ROCKY MOUNT PTSUNNY 88 71 57 S8 30.11F WASHINGTON SUNNY 87 72 61 SW7 30.12F WHITEVILLE MOSUNNY 86 69 55 SW6 30.13F $$ AMZ130-135-150-152-154-156-158-170-250-252-270-ANZ085-086-088-633-658-670-061800- MARINE OBSERVATIONS STATION/POSITION TIME TEMP WIND PRES WAVE SWELL AIR SEA DIR/SP/G HT/PER HT/PER (UTC) (F) (DEG/KT/KT) (MB) (FT/S) (FT/S) CHESAPEAKE LIGHT 1700 79 170/ 15/ 17 1020.5 64 E VA BEACH 1650 78 77 200/ 10/ 12 1020.6 3/ 9 2/ 9 DUCK 1600 76 78 160/ 9/ 12 N/A 2 E DUCK 1611 77 N/A 2/13 2/13 OREGON INLET 1600 76 82 190/ 15/ 21 1021.9 13E OREGON INLT 1700 79 N/A 3/ 8 2/13 HATTERAS CG 1600 83 80 180/ 5/ 9 1022.0 DIAMOND BUOY 1650 80 82 190/ 12/ 14 1021.5 3/13 2/13 CAPE LOOKOUT 1700 80 180/ 9/ 10 1021.2 BEAUFORT LAB 1600 80 81 180/ 10/ 13 1020.6 30 SE NEW RVR IN NOT AVBL 27 SE WRIGHTSVLE 1600 80 220/ 12/ 14 N/A 5 SE WRIGHTSVLE 1608 80 79 210/ 10/ 14 1020.7 225 S CAPE HAT 1650 79 80 190/ 6/ 8 1023.4 3/ 8 3/ 8 41 SE CHARLESTON 1650 80 83 230/ 8/ 10 1020.9 3/ 8 2/ 8 $$

USA.gov is the U.S. government's official web portal to all federal, state and local government web resources and services.